Location: *
(38.9800°N, 16.0500°E)
Time: 21:56:45
(UTC+00:00)

Spot 4 Rocket - Pass Details

Date: 07 April 2020
Orbit: 776 x 781 km, 98.7° (Epoch: 24 May)

Event Time Altitude Azimuth Distance (km) Brightness Sun altitude
Rises 01:58:46 0° 12° (NNE) 3,276 8.0 -27.9°
Reaches altitude 10° 02:01:06 10° 12° (NNE) 2,344 7.1 -27.5°
Enters shadow 02:06:09 82° 314° (NW) 794 3.9 -26.7°
